OBJECT F, 66998

Orbit data source: Space-Track

You're viewing an Uncataloged Satellite

Recently launched and/or uncataloged satellites may have evolving metadata. Metadata may include but not limited to: Owner, Maufacturer, Bus, Motor, and Mission.

OBJECT F, 66998 is a Chinese satellite in SSO that was launched on Wed, 10 Dec 2025 UTC via a LIJIAN-1 launch vehicle from the Jiuquan Satellite Launch Center, China (JSC). Unknown objects in Earth's orbit typically refer to objects detected orbiting the Earth but have not yet been identified or cataloged. These objects could be anything from previously untracked satellites, spent rocket stages, debris from satellite collisions, or even natural meteoroids temporarily captured by Earth's gravity.

Loading next visibility...
Identifier
66998, 2025-292F
Orbit
SSO
Country
Flag of CNCN / PRC
Related business
None
Manufacturer
Unknown
Mission
Operational Commercial Imaging
Bus & Motor
Unknown
Mass
Unknown
Launch date (UTC)
2025-12-10 (6 months ago)
Launch vehicle
LIJIAN-1
Launch site
Jiuquan Satellite Launch Center, China (JSC)
Object type
Unknown
Shape & HBR
Box, 1.1 m
Radar Cross Section
2.000 m², Large (>1 m²)

Expand to show TLE details & history
Last TLE update: 1 day ago

TLE from 1 day ago
0 OBJECT F
1 66998U 25292F   26170.77773848  .00003219  00000-0  22002-3 0  9999
2 66998  97.6340 246.6804 0014376   0.9091 359.2160 15.06786309 28842
Epoch: 2026-06-19T18:39Z
TLE epoch observation values (Epoch: 2026-06-19T18:39:56.604Z)
Latitude
-0.00002°
Longitude
58.69271°
Altitude
539.138 km
Speed
7.598 km/s
True Right ascension
16h 26m 43s
True Declination
0° 00' 00"
Sunlit
Object was in full shadow at epoch
Visualization orbit readout
Latitude
Unknown
Longitude
Unknown
Altitude
Unknown
Speed
Unknown
Apparent Right ascension
Unknown
Apparent Declination
Unknown
Sunlit
N/A
Visualization observer readout
Local Sidereal Time
07:18:21
Azimuth
Unknown
Elevation
Unknown
Doppler factor
Unknown
Orbital elements
Apogee altitude
552.971 km
Perigee altitude
533.071 km
Semi-major axis
6,921.158 km
Eccentricity
0.00144
Inclination
97.634°
RAAN
246.6804°
Arg. of periapsis
0.9091°
True anomaly
359.21374°
Mean anomaly
359.216°
Eccentric anomaly
359.21487°
Mean motion
3.76942 °/min
Orbital period
95.51 mins
BSTAR
0.00022002
Loading maneuver chart data...
Computing Atmospheric mass density...
Loading historical data...
Loading historical data...
Loading historical data...
Loading historical data...
Loading historical data...
Loading historical data...
Loading historical data...

Documentation

Showing up to 5 results
|